"2010-09-14 00:00:00",158701,5.31,104.6,2.287,0.115,22.24,109.9845,24.85,25.76,12.35,0,111.1,13.13,25.69,66.6
"2010-09-14 00:00:30",158702,5.162,103.6,1.902,0.139,22.25,109.9868,24.86,25.76,12.34,0,111.1,13.13,25.70,65.6
"2010-09-14 00:01:00",158703,5.09,103.6,1.195,0.126,22.23,109.9893,24.87,25.77,12.37,0,111.1,13.13,25.71,65.6
"2010-09-14 00:01:30",158704,4.959,102.9,0.985,0.137,22.23,109.9914,24.87,25.78,12.35,0,111.1,13.13,25.71,64.9
"2010-09-14 00:02:00",158705,4.773,104.8,1.197,0.087,22.23,109.9977,24.89,25.77,12.34,0,111.1,13.13,25.73,66.8
"2010-09-14 00:02:30",158706,4.642,108.9,1.906,0.121,22.2,109.9997,24.89,25.78,12.33,0,111.1,13.13,25.73,70.9
"2010-09-14 00:03:00",158707,4.389,109.2,0.655,0.056,22.25,110.0058,24.91,25.78,12.3,0,111.1,13.13,25.75,71.2
"2010-09-14 00:03:30",158708,4.46,109.2,1.208,0.163,22.22,110.0133,24.93,25.77,12.27,0,111.1,13.13,25.77,71.2
"2010-09-14 00:04:00",158709,4.329,109.5,0.91,0.114,22.23,110.0184,24.94,25.78,12.29,0,111.1,13.13,25.78,71.5
"2010-09-14 00:04:30",158710,4.414,111.3,1.4,0.083,22.21,110.0261,24.96,25.8,12.26,0,111.1,13.13,25.80,73.3
"2010-09-14 00:05:00",158711,4.531,113.6,2.772,0.292,22.2,110.0284,24.97,25.79,12.26,0,111.1,13.14,25.81,75.6
"2010-09-14 00:05:30",158712,4.553,114.2,1.747,0.228,22.21,110.0304,24.97,25.8,12.25,0,111.1,13.14,25.81,76.2
"2010-09-14 00:06:00",158713,4.194,113.9,1.524,0.1,22.17,110.0304,24.97,25.79,12.25,0,111.1,13.14,25.81,75.9
"2010-09-14 00:06:30",158714,4.315,112.3,1.496,0.137,22.21,110.0314,24.98,25.81,12.25,0,111.1,13.14,25.81,74.3
"2010-09-14 00:07:00",158715,4.34,117.4,1.378,0.144,22.21,110.029,24.97,25.79,12.27,0,111.1,13.14,25.81,79.4
"2010-09-14 00:07:30",158716,4.42,114.8,1.727,0.118,22.21,110.0288,24.97,25.81,12.25,0,111.1,13.14,25.81,76.8
"2010-09-14 00:08:00",158717,4.472,115.2,1.797,0.108,22.16,110.0261,24.96,25.79,12.33,0,111.1,13.14,25.80,77.2
"2010-09-14 00:08:30",158718,4.686,113.2,0.896,0.085,22.16,110.0149,24.93,25.79,12.33,0,111.1,13.14,25.77,75.2
"2010-09-14 00:09:00",158719,4.712,113.8,0.549,0.097,22.15,110.0123,24.93,25.8,12.34,0,111.1,13.14,25.77,75.8
"2010-09-14 00:09:30",158720,4.859,114.6,1.349,0.153,22.06,110.0062,24.91,25.8,12.44,0,111.1,13.14,25.75,76.6
"2010-09-14 00:10:00",158721,5.128,110.2,1.535,0.118,22.08,110.0045,24.91,25.78,12.55,0,111.1,13.14,25.74,72.2
"2010-09-14 00:10:30",158722,5.175,111.1,0.871,0.099,22.1,110.0048,24.91,25.76,12.46,0,111.1,13.14,25.75,73.1
"2010-09-14 00:11:00",158723,5.15,113.4,0.802,0.087,22.02,110.0045,24.91,25.74,12.43,0,111.1,13.14,25.74,75.4
"2010-09-14 00:11:30",158724,4.91,113.5,1.498,0.118,21.9,110.0049,24.91,25.75,12.42,0,111.1,13.14,25.75,75.5
"2010-09-14 00:12:00",158725,4.963,116.4,1.739,0.06,21.77,110.0009,24.9,25.76,12.41,0,111.1,13.14,25.74,78.4
"2010-09-14 00:12:30",158726,5.207,113.9,1.819,0.138,21.7,110.0013,24.9,25.74,12.44,0,111.1,13.14,25.74,75.9
"2010-09-14 00:13:00",158727,5.132,110.2,1.119,0.078,21.67,109.9906,24.87,25.74,12.51,0,111.1,13.14,25.71,72.2
"2010-09-14 00:13:30",158728,5.236,109.2,0.795,0.067,21.74,109.9871,24.86,25.72,12.48,0,111.1,13.14,25.70,71.2
"2010-09-14 00:14:00",158729,5.128,109.6,1.4,0.088,21.85,109.9879,24.86,25.75,12.49,0,111.1,13.14,25.70,71.6
"2010-09-14 00:14:30",158730,4.857,108.3,1.365,0.128,21.91,109.9845,24.85,25.72,12.43,0,111.1,13.14,25.69,70.3
"2010-09-14 00:15:00",158731,4.82,110.1,0.937,0.132,21.97,109.9838,24.85,25.72,12.43,0,111.1,13.14,25.69,72.1
"2010-09-14 00:15:30",158732,4.893,110.8,0.939,0.106,22,109.9844,24.85,25.73,12.43,0,111.1,13.13,25.69,72.8
"2010-09-14 00:16:00",158733,5.023,108.1,2.02,0.157,22,109.9799,24.84,25.72,12.48,0,111.1,13.13,25.68,70.1
"2010-09-14 00:16:30",158734,5.109,103.5,1.142,0.138,22,109.9798,24.84,25.72,12.53,0,111.1,13.13,25.68,65.5
"2010-09-14 00:17:00",158735,4.986,105.3,1.015,0.128,22.02,109.9788,24.84,25.71,12.43,0,111.1,13.13,25.68,67.3
"2010-09-14 00:17:30",158736,4.969,107.2,1.592,0.224,21.93,109.9791,24.84,25.7,12.42,0,111.1,13.13,25.68,69.2
"2010-09-14 00:18:00",158737,4.902,108.3,1.843,0.109,22,109.9791,24.84,25.68,12.46,0,111.1,13.13,25.68,70.3
"2010-09-14 00:18:30",158738,4.806,109.2,1.774,0.112,22.04,109.9798,24.84,25.68,12.46,0,111.1,13.13,25.68,71.2
"2010-09-14 00:19:00",158739,5.115,109.2,2.349,0.112,22.06,109.9798,24.84,25.67,12.42,0,111.1,13.13,25.68,71.2
"2010-09-14 00:19:30",158740,5.185,108.6,2.403,0.072,22.1,109.9792,24.84,25.67,12.44,0,111.1,13.13,25.68,70.6
"2010-09-14 00:20:00",158741,5.155,110.5,1.425,0.107,22.09,109.9792,24.84,25.68,12.47,0,111.1,13.13,25.68,72.5
"2010-09-14 00:20:30",158742,5.293,109.7,1.257,0.174,22.1,109.9781,24.84,25.67,12.43,0,111.1,13.14,25.68,71.7
"2010-09-14 00:21:00",158743,5.264,112.7,1.021,0.054,22.07,109.9772,24.84,25.67,12.42,0,111.1,13.14,25.67,74.7
"2010-09-14 00:21:30",158744,5.406,114.8,0.848,0.073,22.05,109.9722,24.82,25.67,12.38,0,111.1,13.14,25.66,76.8
"2010-09-14 00:22:00",158745,5.167,114.8,1.21,0.133,21.96,109.9722,24.82,25.65,12.34,0,111.1,13.14,25.66,76.8
"2010-09-14 00:22:30",158746,4.987,116.5,0.548,0.045,21.91,109.9722,24.82,25.67,12.36,0,111.1,13.14,25.66,78.5
"2010-09-14 00:23:00",158747,5.031,116.5,0.644,0.068,21.83,109.9761,24.83,25.66,12.34,0,111.1,13.14,25.67,78.5
"2010-09-14 00:23:30",158748,4.924,116.9,0.747,0.064,21.79,109.9781,24.84,25.67,12.36,0,111.1,13.14,25.68,78.9
"2010-09-14 00:24:00",158749,4.885,114.5,1.032,0.056,21.75,109.9792,24.84,25.67,12.34,0,111.1,13.14,25.68,76.5
"2010-09-14 00:24:30",158750,4.861,112.3,1.85,0.125,21.71,109.9798,24.84,25.67,12.4,0,111.1,13.14,25.68,74.3
"2010-09-14 00:25:00",158751,4.92,113.1,0.976,0.085,21.72,109.9798,24.84,25.68,12.37,0,111.1,13.14,25.68,75.1
"2010-09-14 00:25:30",158752,4.948,112.7,0.593,0.046,21.74,109.9798,24.84,25.69,12.39,0,111.1,13.14,25.68,74.7
"2010-09-14 00:26:00",158753,4.952,112.6,0.967,0.092,21.7,109.9798,24.84,25.68,12.4,0,111.1,13.14,25.68,74.6
"2010-09-14 00:26:30",158754,5.051,113,1.006,0.069,21.64,109.9798,24.84,25.68,12.5,0,111.1,13.14,25.68,75.0
"2010-09-14 00:27:00",158755,4.96,113.3,1.159,0.054,21.66,109.9798,24.84,25.7,12.47,0,111.1,13.14,25.68,75.3
"2010-09-14 00:27:30",158756,4.89,113.3,0.967,0.08,21.67,109.9798,24.84,25.7,12.41,0,111.1,13.14,25.68,75.3
"2010-09-14 00:28:00",158757,4.966,115.6,0.584,0.071,21.63,109.9798,24.84,25.7,12.38,0,111.1,13.14,25.68,77.6
"2010-09-14 00:28:30",158758,4.842,115,0.978,0.032,21.66,109.9798,24.84,25.7,12.39,0,111.1,13.14,25.68,77.0
"2010-09-14 00:29:00",158759,4.794,112.9,0.745,0.04,21.71,109.9803,24.84,25.7,12.37,0,111.1,13.14,25.68,74.9
"2010-09-14 00:29:30",158760,4.772,111.7,0.618,0.043,21.66,109.9812,24.85,25.71,12.37,0,111.1,13.14,25.68,73.7
"2010-09-14 00:30:00",158761,4.872,109.8,1.55,0.105,21.62,109.9806,24.84,25.71,12.36,0,111.1,13.14,25.68,71.8
"2010-09-14 00:30:30",158762,4.704,109.7,1.348,0.07,21.64,109.9801,24.84,25.72,12.36,0,111.1,13.14,25.68,71.7
"2010-09-14 00:31:00",158763,4.762,110.2,1.371,0.117,21.64,109.9798,24.84,25.71,12.35,0,111.1,13.14,25.68,72.2
"2010-09-14 00:31:30",158764,4.705,111.4,1.396,0.106,21.69,109.9798,24.84,25.71,12.33,0,111.1,13.14,25.68,73.4
"2010-09-14 00:32:00",158765,4.553,111.2,1.982,0.135,21.68,109.9798,24.84,25.71,12.34,0,111.1,13.14,25.68,73.2
"2010-09-14 00:32:30",158766,4.619,113.7,1.853,0.04,21.75,109.9791,24.84,25.71,12.35,0,111.1,13.14,25.68,75.7
"2010-09-14 00:33:00",158767,4.622,113.3,1.052,0.09,21.75,109.9798,24.84,25.7,12.37,0,111.1,13.14,25.68,75.3
"2010-09-14 00:33:30",158768,4.545,111.4,1.388,0.058,21.69,109.9795,24.84,25.7,12.36,0,111.1,13.13,25.68,73.4
"2010-09-14 00:34:00",158769,4.513,110.7,0.911,0.075,21.66,109.9788,24.84,25.69,12.37,0,111.1,13.13,25.68,72.7
"2010-09-14 00:34:30",158770,4.704,109,0.979,0.108,21.73,109.9795,24.84,25.7,12.33,0,111.1,13.13,25.68,71.0
"2010-09-14 00:35:00",158771,4.801,111.1,1.387,0.133,21.71,109.9764,24.83,25.7,12.34,0,111.1,13.13,25.67,73.1
"2010-09-14 00:35:30",158772,4.642,110.2,1.422,0.155,21.67,109.9773,24.84,25.69,12.34,0,111.1,13.13,25.67,72.2
"2010-09-14 00:36:00",158773,4.796,111,1.361,0.04,21.7,109.9773,24.84,25.7,12.32,0,111.1,13.13,25.67,73.0
"2010-09-14 00:36:30",158774,4.702,111,1.192,0.065,21.7,109.9736,24.83,25.7,12.32,0,111.1,13.13,25.67,73.0
"2010-09-14 00:37:00",158775,4.638,109.1,1.192,0.062,21.69,109.9745,24.83,25.69,12.31,0,111.1,13.13,25.67,71.1
"2010-09-14 00:37:30",158776,4.54,108.2,1.525,0.062,21.72,109.9751,24.83,25.71,12.32,0,111.1,13.14,25.67,70.2
"2010-09-14 00:38:00",158777,4.662,108.4,1.323,0.084,21.7,109.973,24.83,25.7,12.32,0,111.1,13.14,25.66,70.4
"2010-09-14 00:38:30",158778,4.674,111.8,1.033,0.061,21.72,109.9727,24.82,25.68,12.35,0,111.1,13.14,25.66,73.8
"2010-09-14 00:39:00",158779,4.77,111.4,0.541,0.069,21.71,109.9733,24.83,25.69,12.35,0,111.1,13.14,25.66,73.4
"2010-09-14 00:39:30",158780,4.679,111.4,0.892,0.035,21.71,109.9726,24.82,25.69,12.35,0,111.1,13.14,25.66,73.4
"2010-09-14 00:40:00",158781,4.576,109.1,1.087,0.078,21.74,109.9738,24.83,25.71,12.35,0,111.1,13.14,25.67,71.1
"2010-09-14 00:40:30",158782,4.513,110.1,1.274,0.045,21.72,109.9753,24.83,25.7,12.35,0,111.1,13.14,25.67,72.1
"2010-09-14 00:41:00",158783,4.433,109.3,1.107,0.049,21.76,109.9749,24.83,25.69,12.34,0,111.1,13.14,25.67,71.3
"2010-09-14 00:41:30",158784,4.35,108.7,0.991,0.084,21.78,109.9767,24.83,25.7,12.33,0,111.1,13.14,25.67,70.7
"2010-09-14 00:42:00",158785,4.349,106.8,1.175,0.087,21.77,109.9781,24.84,25.7,12.33,0,111.1,13.14,25.68,68.8
"2010-09-14 00:42:30",158786,4.378,107.5,0.928,0.051,21.81,109.9781,24.84,25.69,12.32,0,111.1,13.14,25.68,69.5
"2010-09-14 00:43:00",158787,4.445,109.3,1.244,0.081,21.76,109.9792,24.84,25.69,12.34,0,111.1,13.14,25.68,71.3
"2010-09-14 00:43:30",158788,4.331,110,1.014,0.094,21.75,109.9789,24.84,25.7,12.33,0,111.1,13.14,25.68,72.0
"2010-09-14 00:44:00",158789,4.364,112.6,0.877,0.094,21.73,109.9795,24.84,25.69,12.33,0,111.1,13.14,25.68,74.6
"2010-09-14 00:44:30",158790,4.317,112.2,0.763,0.057,21.74,109.9806,24.84,25.71,12.34,0,111.1,13.14,25.68,74.2
"2010-09-14 00:45:00",158791,4.255,111,1.326,0.052,21.79,109.9829,24.85,25.7,12.33,0,111.1,13.14,25.69,73.0
"2010-09-14 00:45:30",158792,4.319,107.6,1.852,0.118,21.82,109.9868,24.86,25.72,12.31,0,111.1,13.14,25.70,69.6
"2010-09-14 00:46:00",158793,4.409,103.9,1.012,0.06,21.74,109.9834,24.85,25.71,12.29,0,111.1,13.14,25.69,65.9
"2010-09-14 00:46:30",158794,4.45,105.5,1.175,0.079,21.81,109.9806,24.84,25.72,12.29,0,111.1,13.14,25.68,67.5
"2010-09-14 00:47:00",158795,4.224,109.2,1.692,0.073,21.86,109.9792,24.84,25.72,12.31,0,111.1,13.14,25.68,71.2
"2010-09-14 00:47:30",158796,4.277,107.1,1.649,0.145,21.86,109.9786,24.84,25.7,12.31,0,111.1,13.14,25.68,69.1
"2010-09-14 00:48:00",158797,4.311,105.9,0.898,0.076,21.85,109.9773,24.84,25.69,12.29,0,111.1,13.14,25.67,67.9
"2010-09-14 00:48:30",158798,4.249,105.7,0.715,0.069,21.85,109.9725,24.82,25.7,12.27,0,111.1,13.14,25.66,67.7
"2010-09-14 00:49:00",158799,4.4,105.2,0.738,0.05,21.85,109.9717,24.82,25.7,12.29,0,111.1,13.14,25.66,67.2
"2010-09-14 00:49:30",158800,4.488,108.6,1.779,0.069,21.86,109.9705,24.82,25.7,12.29,0,111.1,13.13,25.66,70.6
"2010-09-14 00:50:00",158801,4.272,110.1,1.82,0.126,21.87,109.9705,24.82,25.71,12.29,0,111.1,13.13,25.66,72.1
"2010-09-14 00:50:30",158802,4.242,108.8,2.554,0.221,21.9,109.9708,24.82,25.7,12.29,0,111.1,13.13,25.66,70.8
"2010-09-14 00:51:00",158803,4.527,107,1.059,0.094,21.9,109.9705,24.82,25.69,12.29,0,111.1,13.13,25.66,69.0
"2010-09-14 00:51:30",158804,4.434,107.5,0.969,0.105,21.93,109.9705,24.82,25.69,12.3,0,111.1,13.13,25.66,69.5
"2010-09-14 00:52:00",158805,4.597,106.3,0.636,0.052,21.98,109.9705,24.82,25.68,12.29,0,111.1,13.13,25.66,68.3
"2010-09-14 00:52:30",158806,4.644,108.3,1.125,0.039,22.03,109.9705,24.82,25.67,12.3,0,111.1,13.13,25.66,70.3
"2010-09-14 00:53:00",158807,4.577,107.8,0.669,0.031,22.05,109.9708,24.82,25.66,12.31,0,111.1,13.13,25.66,69.8
"2010-09-14 00:53:30",158808,4.54,107.6,0.691,0.041,22.09,109.9711,24.82,25.66,12.31,0,111.1,13.13,25.66,69.6
"2010-09-14 00:54:00",158809,4.423,107,0.783,0.035,22.09,109.9717,24.82,25.66,12.33,0,111.1,13.13,25.66,69.0
"2010-09-14 00:54:30",158810,4.463,106.7,0.745,0.049,22.04,109.9724,24.82,25.65,12.3,0,111.1,13.13,25.66,68.7
"2010-09-14 00:55:00",158811,4.455,106,1.074,0.043,22.06,109.97,24.82,25.65,12.31,0,111.1,13.14,25.66,68.0
"2010-09-14 00:55:30",158812,4.335,107,1.26,0.04,22.03,109.9704,24.82,25.65,12.32,0,111.1,13.14,25.66,69.0
"2010-09-14 00:56:00",158813,4.323,105.4,0.981,0.055,22,109.9676,24.81,25.66,12.31,0,111.1,13.14,25.65,67.4
"2010-09-14 00:56:30",158814,4.259,106.2,1.424,0.03,22,109.9673,24.81,25.65,12.3,0,111.1,13.14,25.65,68.2
"2010-09-14 00:57:00",158815,4.208,105.3,0.647,0.036,22.02,109.9652,24.81,25.64,12.3,0,111.1,13.14,25.64,67.3
"2010-09-14 00:57:30",158816,4.146,105.1,0.836,0.029,22.09,109.966,24.81,25.66,12.32,0,111.1,13.14,25.65,67.1
"2010-09-14 00:58:00",158817,4.178,105.6,0.774,0.053,22.07,109.9606,24.79,25.64,12.32,0,111.1,13.14,25.63,67.6
"2010-09-14 00:58:30",158818,4.261,106,1.126,0.044,22.08,109.959,24.79,25.64,12.31,0,111.1,13.14,25.63,68.0
"2010-09-14 00:59:00",158819,4.236,104.7,0.918,0.052,22.12,109.9575,24.79,25.65,12.32,0,111.1,13.14,25.62,66.7
"2010-09-14 00:59:30",158820,4.2,105.2,1.081,0.053,22.16,109.9561,24.78,25.65,12.31,0,111.1,13.14,25.62,67.2
"2010-09-14 01:00:00",158821,4.225,105.1,0.576,0.054,22.18,109.9578,24.79,25.64,12.32,0,111.1,13.14,25.62,67.1
"2010-09-14 01:00:30",158822,4.161,105.3,0.635,0.061,22.16,109.9578,24.79,25.64,12.33,0,111.1,13.14,25.62,67.3
"2010-09-14 01:01:00",158823,4.231,105.8,1.164,0.034,22.22,109.9564,24.78,25.64,12.32,0,111.1,13.14,25.62,67.8
"2010-09-14 01:01:30",158824,4.13,106.4,1.076,0.057,22.2,109.9562,24.78,25.63,12.33,0,111.1,13.14,25.62,68.4
"2010-09-14 01:02:00",158825,4.065,106.9,1.155,0.072,22.22,109.9567,24.78,25.63,12.32,0,111.1,13.14,25.62,68.9
"2010-09-14 01:02:30",158826,4.238,104.8,0.66,0.073,22.2,109.9567,24.78,25.64,12.33,0,111.1,13.14,25.62,66.8
"2010-09-14 01:03:00",158827,4.221,102.8,1.439,0.056,22.21,109.955,24.78,25.65,12.33,0,111.1,13.14,25.62,64.8
"2010-09-14 01:03:30",158828,4.188,102.6,1.6,0.055,22.23,109.9517,24.77,25.63,12.32,0,111.1,13.14,25.61,64.6
"2010-09-14 01:04:00",158829,4.341,101.4,1.535,0.122,22.21,109.9494,24.76,25.64,12.29,0,111.1,13.14,25.60,63.4
"2010-09-14 01:04:30",158830,4.359,101.4,0.865,0.059,22.22,109.9466,24.76,25.64,12.26,0,111.1,13.14,25.60,63.4
"2010-09-14 01:05:00",158831,4.288,101.3,1.168,0.099,22.23,109.946,24.76,25.62,12.28,0,111.1,13.14,25.59,63.3
"2010-09-14 01:05:30",158832,4.363,102,0.652,0.081,22.22,109.946,24.76,25.63,12.25,0,111.1,13.15,25.59,64.0
"2010-09-14 01:06:00",158833,4.285,101.7,0.489,0.055,22.22,109.946,24.76,25.62,12.26,0,111.1,13.15,25.59,63.7
"2010-09-14 01:06:30",158834,4.328,101.3,0.802,0.054,22.24,109.946,24.76,25.61,12.27,0,111.1,13.14,25.59,63.3
"2010-09-14 01:07:00",158835,4.266,100.5,0.775,0.051,22.29,109.946,24.76,25.61,12.31,0,111.1,13.14,25.59,62.5
"2010-09-14 01:07:30",158836,4.361,98.8,0.998,0.072,22.26,109.9458,24.76,25.61,12.28,0,111.1,13.14,25.59,60.8
"2010-09-14 01:08:00",158837,4.478,100,0.406,0.063,22.26,109.9458,24.76,25.6,12.27,0,111.1,13.14,25.59,62.0
"2010-09-14 01:08:30",158838,4.406,99.5,0.412,0.04,22.25,109.9455,24.75,25.6,12.25,0,111.1,13.14,25.59,61.5
"2010-09-14 01:09:00",158839,4.254,100,0.33,0.048,22.24,109.9438,24.75,25.59,12.24,0,111.1,13.14,25.59,62.0
"2010-09-14 01:09:30",158840,4.137,99.8,0.66,0.032,22.19,109.9393,24.74,25.6,12.25,0,111.1,13.14,25.58,61.8
"2010-09-14 01:10:00",158841,4.181,99.1,0.578,0.088,22.18,109.9278,24.71,25.59,12.25,0,111.1,13.14,25.55,61.1
"2010-09-14 01:10:30",158842,4.196,100,1.952,0.053,22.19,109.9216,24.69,25.58,12.25,0,111.1,13.14,25.53,62.0
"2010-09-14 01:11:00",158843,4.359,102.6,1.219,0.077,22.21,109.9194,24.69,25.58,12.25,0,111.1,13.14,25.53,64.6
"2010-09-14 01:11:30",158844,4.393,102.9,1.284,0.125,22.2,109.9132,24.67,25.58,12.26,0,111.1,13.14,25.51,64.9
"2010-09-14 01:12:00",158845,4.423,103.1,1.581,0.103,22.19,109.9123,24.67,25.57,12.28,0,111.1,13.15,25.51,65.1
"2010-09-14 01:12:30",158846,4.443,104.2,1.772,0.159,22.22,109.9123,24.67,25.57,12.27,0,111.1,13.15,25.51,66.2
"2010-09-14 01:13:00",158847,4.961,102.2,2.248,0.171,22.17,109.9123,24.67,25.56,12.36,0,111.1,13.15,25.51,64.2
"2010-09-14 01:13:30",158848,5.394,103.9,2.067,0.139,22.14,109.911,24.67,25.53,12.49,0,111,13.15,25.50,65.9
"2010-09-14 01:14:00",158849,5.1,104.9,2.749,0.133,22.16,109.9008,24.64,25.52,12.45,0,111.1,13.15,25.48,66.9
"2010-09-14 01:14:30",158850,5.381,106.5,1.594,0.179,22.16,109.8874,24.61,25.52,12.49,0,111,13.15,25.44,68.5
"2010-09-14 01:15:00",158851,5.434,108.7,1.971,0.151,22.1,109.8801,24.59,25.51,12.52,0,111.1,13.15,25.42,70.7
"2010-09-14 01:15:30",158852,4.903,108,1.566,0.161,22.16,109.8799,24.59,25.5,12.5,0,111,13.15,25.42,70.0
"2010-09-14 01:16:00",158853,4.587,108.3,1.567,0.192,22.2,109.8811,24.59,25.48,12.43,0,111,13.15,25.43,70.3
"2010-09-14 01:16:30",158854,4.941,106.5,2.114,0.162,22.18,109.8826,24.59,25.49,12.45,0,111,13.15,25.43,68.5
"2010-09-14 01:17:00",158855,4.701,108.9,1.525,0.17,22.19,109.882,24.59,25.47,12.48,0,111,13.15,25.43,70.9
"2010-09-14 01:17:30",158856,4.562,108.1,1.801,0.127,22.18,109.8823,24.59,25.48,12.45,0,111,13.15,25.43,70.1
"2010-09-14 01:18:00",158857,4.393,107.9,1.412,0.15,22.17,109.8848,24.6,25.46,12.42,0,111,13.15,25.44,69.9
"2010-09-14 01:18:30",158858,4.653,109.6,2.346,0.107,22.16,109.8848,24.6,25.47,12.44,0,111,13.15,25.44,71.6
"2010-09-14 01:19:00",158859,4.879,111,0.91,0.1,22.17,109.8851,24.6,25.46,12.47,0,111,13.15,25.44,73.0
"2010-09-14 01:19:30",158860,4.992,110.6,1.562,0.188,22.16,109.8888,24.61,25.47,12.46,0,111,13.15,25.45,72.6
"2010-09-14 01:20:00",158861,4.875,110.7,1.094,0.101,22.17,109.8882,24.61,25.47,12.45,0,111,13.15,25.45,72.7
"2010-09-14 01:20:30",158862,4.723,111.4,2.226,0.105,22.19,109.8907,24.61,25.47,12.43,0,111,13.15,25.45,73.4
"2010-09-14 01:21:00",158863,4.538,113.8,1.748,0.097,22.23,109.8959,24.63,25.48,12.39,0,111,13.15,25.46,75.8
"2010-09-14 01:21:30",158864,4.047,108.2,1.008,0.13,22.27,109.8947,24.62,25.47,12.32,0,111,13.16,25.46,70.2
"2010-09-14 01:22:00",158865,3.828,109.5,0.841,0.088,22.32,109.8971,24.63,25.48,12.3,0,111,13.15,25.47,71.5
"2010-09-14 01:22:30",158866,4.1,110,1.426,0.27,22.19,109.8975,24.63,25.49,12.35,0,111,13.16,25.47,72.0
"2010-09-14 01:23:00",158867,4.45,110.1,1.815,0.192,22.15,109.9005,24.64,25.51,12.42,0,111,13.16,25.48,72.1
"2010-09-14 01:23:30",158868,4.443,106.2,1.555,0.103,22.14,109.9012,24.64,25.49,12.41,0,111,13.15,25.48,68.2
"2010-09-14 01:24:00",158869,4.22,109.2,1.326,0.125,22.23,109.9021,24.64,25.5,12.38,0,111,13.15,25.48,71.2
"2010-09-14 01:24:30",158870,4.225,110.6,1.634,0.145,22.21,109.9061,24.65,25.5,12.37,0,111,13.15,25.49,72.6
"2010-09-14 01:25:00",158871,4.394,108.2,1.916,0.243,22.2,109.9052,24.65,25.49,12.39,0,111,13.15,25.49,70.2
"2010-09-14 01:25:30",158872,4.015,109,1.788,0.114,22.26,109.9064,24.65,25.49,12.34,0,111,13.15,25.49,71.0
"2010-09-14 01:26:00",158873,3.929,109,1.601,0.177,22.25,109.9064,24.65,25.49,12.33,0,111,13.15,25.49,71.0
"2010-09-14 01:26:30",158874,4.185,110.7,1.435,0.081,22.25,109.9064,24.65,25.5,12.39,0,111,13.15,25.49,72.7
"2010-09-14 01:27:00",158875,4.086,111.2,1.745,0.199,22.27,109.9067,24.65,25.51,12.35,0,111,13.15,25.49,73.2
"2010-09-14 01:27:30",158876,3.765,109.8,1.95,0.154,22.26,109.9064,24.65,25.5,12.32,0,111,13.15,25.49,71.8
"2010-09-14 01:28:00",158877,4.106,108.7,1.999,0.171,22.21,109.907,24.66,25.5,12.34,0,111,13.15,25.49,70.7
"2010-09-14 01:28:30",158878,4.459,108.7,1.485,0.082,22.18,109.9073,24.66,25.51,12.37,0,111,13.15,25.49,70.7
"2010-09-14 01:29:00",158879,4.52,110.1,2.069,0.135,22.17,109.9098,24.66,25.51,12.38,0,111,13.16,25.50,72.1
"2010-09-14 01:29:30",158880,4.389,111.1,0.999,0.059,22.21,109.911,24.67,25.52,12.38,0,111,13.16,25.50,73.1
"2010-09-14 01:30:00",158881,4.476,109.5,1.212,0.077,22.2,109.9059,24.65,25.5,12.38,0,111,13.16,25.49,71.5
"2010-09-14 01:30:30",158882,4.455,110.6,1.274,0.099,22.2,109.8949,24.62,25.49,12.39,0,111,13.16,25.46,72.6
"2010-09-14 01:31:00",158883,4.37,109.3,1.207,0.071,22.21,109.8914,24.62,25.5,12.39,0,111,13.16,25.45,71.3
"2010-09-14 01:31:30",158884,4.444,110.5,1.289,0.094,22.2,109.8889,24.61,25.48,12.39,0,111,13.16,25.45,72.5
"2010-09-14 01:32:00",158885,4.519,110.3,0.934,0.099,22.2,109.8836,24.6,25.48,12.39,0,111,13.17,25.43,72.3
"2010-09-14 01:32:30",158886,4.484,110.5,0.956,0.092,22.23,109.882,24.59,25.47,12.39,0,111,13.16,25.43,72.5
"2010-09-14 01:33:00",158887,4.359,110.6,0.866,0.06,22.22,109.882,24.59,25.47,12.39,0,111,13.17,25.43,72.6
"2010-09-14 01:33:30",158888,4.439,110.4,1.117,0.071,22.2,109.8816,24.59,25.46,12.38,0,111,13.17,25.43,72.4
"2010-09-14 01:34:00",158889,4.45,109.8,0.915,0.088,22.2,109.882,24.59,25.46,12.38,0,111,13.17,25.43,71.8
"2010-09-14 01:34:30",158890,4.469,111.8,1.286,0.074,22.17,109.882,24.59,25.46,12.38,0,111,13.16,25.43,73.8
"2010-09-14 01:35:00",158891,4.378,112.2,0.857,0.041,22.17,109.882,24.59,25.46,12.38,0,111,13.17,25.43,74.2
"2010-09-14 01:35:30",158892,4.51,111.9,0.652,0.094,22.17,109.882,24.59,25.44,12.37,0,111,13.17,25.43,73.9
"2010-09-14 01:36:00",158893,4.402,112.5,0.831,0.042,22.16,109.882,24.59,25.45,12.36,0,111,13.17,25.43,74.5
"2010-09-14 01:36:30",158894,4.576,110.9,1.438,0.102,22.19,109.882,24.59,25.44,12.36,0,111,13.17,25.43,72.9
"2010-09-14 01:37:00",158895,4.587,110.6,1.671,0.073,22.17,109.882,24.59,25.45,12.36,0,111,13.17,25.43,72.6
"2010-09-14 01:37:30",158896,4.584,108.6,1.331,0.084,22.17,109.882,24.59,25.44,12.34,0,111,13.17,25.43,70.6
"2010-09-14 01:38:00",158897,4.616,108.9,0.536,0.049,22.2,109.882,24.59,25.44,12.34,0,111,13.17,25.43,70.9
"2010-09-14 01:38:30",158898,4.597,109.2,1.04,0.027,22.18,109.882,24.59,25.44,12.34,0,111,13.17,25.43,71.2
"2010-09-14 01:39:00",158899,4.531,110,1.073,0.054,22.22,109.882,24.59,25.45,12.32,0,111,13.17,25.43,72.0
"2010-09-14 01:39:30",158900,4.48,108.5,0.53,0.064,22.18,109.882,24.59,25.46,12.31,0,111,13.17,25.43,70.5
"2010-09-14 01:40:00",158901,4.354,108.8,0.846,0.042,22.19,109.882,24.59,25.45,12.31,0,111,13.17,25.43,70.8
"2010-09-14 01:40:30",158902,4.303,108,0.608,0.037,22.22,109.882,24.59,25.46,12.31,0,111,13.16,25.43,70.0
"2010-09-14 01:41:00",158903,4.246,108.6,1.002,0.072,22.24,109.882,24.59,25.46,12.28,0,111,13.16,25.43,70.6
"2010-09-14 01:41:30",158904,4.192,108.6,0.684,0.056,22.23,109.882,24.59,25.46,12.28,0,111,13.16,25.43,70.6
"2010-09-14 01:42:00",158905,4.188,108.9,0.638,0.057,22.24,109.882,24.59,25.46,12.28,0,111,13.16,25.43,70.9
"2010-09-14 01:42:30",158906,4.228,108.6,0.659,0.026,22.25,109.882,24.59,25.48,12.27,0,111,13.16,25.43,70.6
"2010-09-14 01:43:00",158907,4.273,108.1,0.606,0.059,22.23,109.8823,24.59,25.47,12.27,0,111,13.16,25.43,70.1
"2010-09-14 01:43:30",158908,4.265,107.2,1.032,0.044,22.22,109.882,24.59,25.47,12.29,0,111,13.16,25.43,69.2
"2010-09-14 01:44:00",158909,4.192,106,0.606,0.044,22.23,109.882,24.59,25.47,12.27,0,111,13.16,25.43,68.0
"2010-09-14 01:44:30",158910,4.258,106.2,0.633,0.05,22.22,109.882,24.59,25.48,12.26,0,111,13.16,25.43,68.2
"2010-09-14 01:45:00",158911,4.296,106.6,0.667,0.04,22.22,109.8826,24.59,25.48,12.27,0,111,13.16,25.43,68.6
"2010-09-14 01:45:30",158912,4.342,106.9,0.571,0.035,22.21,109.882,24.59,25.47,12.28,0,111,13.17,25.43,68.9
"2010-09-14 01:46:00",158913,4.349,106.9,0.61,0.075,22.21,109.8832,24.59,25.49,12.28,0,111,13.17,25.43,68.9
"2010-09-14 01:46:30",158914,4.405,107.2,0.948,0.051,22.21,109.8844,24.6,25.47,12.27,0,111,13.17,25.44,69.2
"2010-09-14 01:47:00",158915,4.468,109.4,1.095,0.042,22.22,109.8829,24.59,25.47,12.25,0,111,13.17,25.43,71.4
"2010-09-14 01:47:30",158916,4.419,108.2,1.098,0.091,22.2,109.8838,24.6,25.49,12.25,0,111,13.17,25.43,70.2
"2010-09-14 01:48:00",158917,4.448,106.7,0.87,0.145,22.2,109.8869,24.6,25.49,12.24,0,111,13.17,25.44,68.7
"2010-09-14 01:48:30",158918,4.637,105.5,1.199,0.121,22.2,109.8866,24.6,25.48,12.22,0,111,13.17,25.44,67.5
"2010-09-14 01:49:00",158919,4.729,104.3,0.75,0.088,22.22,109.8863,24.6,25.49,12.2,0,111,13.17,25.44,66.3
"2010-09-14 01:49:30",158920,4.603,105.8,1.131,0.086,22.22,109.8857,24.6,25.48,12.2,0,111,13.17,25.44,67.8